Regional Weather Roundup
Issued by NWS Sioux Falls, SD

Home | Current Version | Previous Version | Graphics & Text | Print | Product List | Glossary Off
Versions: 1 2 3 4 5 6 7 8 9 10 11 12 13 14 15 16 17 18 19 20 21 22 23 24 25 26 27 28 29 30 31 32 33 34 35 36 37 38 39 40 41 42 43 44 45 46 47 48 49 50

000
ASUS43 KFSD 171602
RWRFSD

WEATHER ROUNDUP FOR SE SOUTH DAKOTA/SW MINNESOTA/NW IOWA
NATIONAL WEATHER SERVICE SIOUX FALLS SD
1100 AM CDT TUE OCT 17 2017

NOTE: "FAIR" INDICATES FEW OR NO CLOUDS BELOW 12,000 FEET WITH NO
SIGNIFICANT WEATHER AND OR OBSTRUCTIONS TO VISIBILITY.


SDZ038>040-050-052>070-171700-
SOUTHEAST SOUTH DAKOTA

CITY           SKY/WX    TMP DP  RH WIND       PRES   REMARKS
BROOKINGS      SUNNY     57  43  59 S3        30.04
CHAMBERLAIN    NOT AVBL
HURON          SUNNY     58  43  57 MISG      30.01F
MADISON        FAIR      61  41  48 W8        30.04F
MITCHELL       SUNNY     60  44  55 S5        30.04F
SIOUX FALLS    SUNNY     61  48  62 S3        30.05S
WINNER         FAIR      65  40  39 SW9       30.05S
YANKTON        SUNNY     59  47  64 CALM      30.06S
$$

MNZ071-072-080-081-089-090-097-098-171700-
SOUTHWEST MINNESOTA

CITY           SKY/WX    TMP DP  RH WIND       PRES   REMARKS
FAIRMONT       SUNNY     61  43  51 SW7       30.05S
JACKSON        SUNNY     61  41  48 SW7       30.05S
MARSHALL       SUNNY     68  41  37 W7        30.02S
MONTEVIDEO     SUNNY     64  43  45 CALM      30.01S
PIPESTONE      SUNNY     61  45  55 W5        30.04S
REDWOOD FALLS  SUNNY     59  41  51 CALM      30.02S
TRACY          SUNNY     66  42  41 SW9       30.02S
WORTHINGTON    SUNNY     62  42  47 SW6       30.05S
$$

IAZ001>003-012>014-020>022-031-032-NEZ013-014-SDZ071-171700-
NORTHWEST IOWA

CITY           SKY/WX    TMP DP  RH WIND       PRES   REMARKS
CHEROKEE       SUNNY     57  47  67 S6        30.08S
DENISON        SUNNY     59  43  55 MISG      30.11S
ESTHERVILLE    SUNNY     60  44  55 SW7       30.04F
LE MARS        SUNNY     57  43  58 VRB5      30.07F
ORANGE CITY    SUNNY     59  46  63 S5        30.07S
SHELDON        SUNNY     57  43  58 S6        30.05F
SIOUX CITY     SUNNY     57  46  66 SE6       30.08F
SPENCER        SUNNY     60  43  53 SW6       30.06F
STORM LAKE     SUNNY     59  43  55 SW9       30.08S
$$

ABBREVIATIONS USED IN REMARKS
   TC - TEMPERATURE IN CELSIUS
  WCI - WIND CHILL INDEX
   HX - HEAT INDEX
  VSB - VISIBILITY





USA.gov is the U.S. government's official web portal to all federal, state and local government web resources and services.